QPF
0.00 0.00 0.00 0.00 0.00 0.00 0.00 0.00 0.00 0.00 0.00 0.00 0.00 0.00 0.00 0.00 0.00 0.00 0.00 0.00 0.00 0.00 0.00 0.00 0.00 0.00 0.00 0.00 0.00 0.00 0.00 0.00 0.00 0.02 0.03 0.02 0.05 0.05 0.07 0.04 0.03 0.02 0.03 0.04
0.00 0.00 0.00 0.00 0.00 0.00 0.00 0.00 0.00 0.00 0.00 0.00 0.00 0.00 0.00 0.00 0.00 0.00 0.00 0.00 0.00 0.00 0.00 0.00 0.00 0.00 0.00 0.00 0.00 0.00 0.00 0.00 0.01 0.01 0.03 0.03 0.02 0.01 0.03 0.05 0.06 0.03 0.03 0.04
0.00 0.00 0.00 0.00 0.00 0.00 0.00 0.00 0.00 0.00 0.00 0.00 0.00 0.00 0.00 0.00 0.00 0.00 0.00 0.00 0.00 0.00 0.00 0.00 0.00 0.00 0.00 0.00 0.00 0.00 0.00 0.00 0.01 0.02 0.04 0.04 0.03 0.04 0.04 0.08 0.06 0.03 0.02 0.02
0.03 0.00 0.01 0.00 0.00 0.00 0.00 0.00 0.00 0.00 0.00 0.00 0.00 0.00 0.00 0.00 0.00 0.00 0.00 0.00 0.00 0.00 0.00 0.00 0.00 0.00 0.00 0.00 0.00 0.00 0.00 0.00 0.00 0.01 0.03 0.03 0.05 0.04 0.05 0.03 0.04 0.05 0.04 0.03
0.07 0.03 0.01 0.00 0.00 0.00 0.00 0.00 0.00 0.00 0.00 0.00 0.00 0.00 0.00 0.00 0.00 0.00 0.00 0.00 0.00 0.00 0.00 0.00 0.00 0.00 0.00 0.00 0.00 0.00 0.00 0.00 0.00 0.02 0.04 0.05 0.08 0.08 0.07 0.05 0.04 0.02 0.02 0.01
0.04 0.10 0.04 0.00 0.00 0.00 0.00 0.00 0.00 0.00 0.00 0.00 0.00 0.00 0.00 0.00 0.00 0.00 0.00 0.00 0.00 0.00 0.00 0.00 0.00 0.00 0.00 0.00 0.00 0.00 0.01 0.01 0.02 0.02 0.03 0.03 0.04 0.04 0.02 0.01 0.01 0.00 0.00 0.00
0.02 0.07 0.04 0.00 0.00 0.00 0.00 0.00 0.00 0.00 0.00 0.00 0.00 0.00 0.00 0.00 0.00 0.00 0.00 0.00 0.00 0.00 0.00 0.00 0.00 0.00 0.00 0.00 0.00 0.00 0.00 0.00 0.00 0.00 0.00 0.00 0.00 0.00 0.01 0.01 0.00 0.00 0.00 0.00
0.03 0.09 0.08 0.01 0.03 0.04 0.01 0.00 0.00 0.00 0.00 0.00 0.00 0.00 0.00 0.00 0.00 0.00 0.00 0.00 0.00 0.00 0.00 0.00 0.00 0.00 0.00 0.00 0.00 0.00 0.00 0.00 0.00 0.00 0.00 0.00 0.00 0.00 0.00 0.00 0.00 0.00 0.00 0.00
0.01 0.08 0.06 0.03 0.06 0.07 0.05 0.01 0.00 0.00 0.00 0.00 0.00 0.00 0.00 0.00 0.00 0.00 0.00 0.00 0.00 0.00 0.00 0.00 0.00 0.00 0.00 0.00 0.00 0.00 0.00 0.00 0.00 0.00 0.00 0.00 0.00 0.00 0.00 0.00 0.00 0.00 0.00 0.00
0.00 0.00 0.00 0.00 0.00 0.00 0.00 0.00 0.01 0.01 0.00 0.00 0.00 0.00 0.00 0.00 0.00 0.00 0.00 0.00 0.00 0.00 0.00 0.00 0.00 0.00 0.00 0.00 0.00 0.00 0.00 0.00 0.00 0.00 0.00 0.00 0.00 0.00 0.00 0.00 0.00 0.00 0.00 0.00
0.00 0.00 0.00 0.00 0.00 0.00 0.00 0.00 0.00 0.00 0.00 0.00 0.00 0.00 0.00 0.00 0.00 0.00 0.00 0.00 0.00 0.00 0.00 0.00 0.00 0.00 0.00 0.00 0.00 0.00 0.00 0.00 0.00 0.00 0.00 0.00 0.00 0.00 0.00 0.00 0.00 0.00 0.00 0.00
0.01 0.03 0.02 0.00 0.00 0.00 0.00 0.00 0.00 0.00 0.00 0.00 0.00 0.00 0.00 0.00 0.00 0.00 0.00 0.00 0.00 0.00 0.00 0.00 0.00 0.00 0.00 0.00 0.00 0.00 0.00 0.00 0.00 0.00 0.00 0.00 0.00 0.00 0.00 0.00 0.00 0.00 0.00 0.00
0.03 0.02 0.03 0.02 0.01 0.01 0.01 0.00 0.01 0.00 0.00 0.00 0.00 0.00 0.00 0.00 0.00 0.00 0.00 0.00 0.00 0.00 0.00 0.00 0.00 0.00 0.00 0.00 0.00 0.00 0.00 0.00 0.00 0.00 0.00 0.00 0.00 0.00 0.00 0.00 0.00 0.00 0.00 0.00
0.01 0.02 0.04 0.02 0.01 0.01 0.02 0.01 0.01 0.01 0.00 0.00 0.00 0.00 0.00 0.00 0.01 0.00 0.00 0.00 0.00 0.00 0.00 0.00 0.00 0.00 0.00 0.00 0.00 0.00 0.00 0.00 0.00 0.00 0.00 0.00 0.00 0.00 0.00 0.01 0.01 0.03 0.04 0.03
0.00 0.00 0.00 0.01 0.02 0.02 0.01 0.01 0.01 0.01 0.00 0.00 0.00 0.00 0.00 0.00 0.00 0.00 0.00 0.00 0.00 0.00 0.00 0.00 0.00 0.00 0.00 0.00 0.00 0.01 0.02 0.04 0.05 0.05 0.06 0.06 0.05 0.05 0.06 0.08 0.09 0.09 0.07 0.06
0.00 0.00 0.00 0.00 0.01 0.01 0.01 0.00 0.00 0.00 0.00 0.00 0.00 0.00 0.00 0.00 0.00 0.00 0.00 0.00 0.00 0.00 0.00 0.00 0.00 0.01 0.02 0.05 0.11 0.16 0.18 0.16 0.13 0.11 0.09 0.08 0.09 0.09 0.09 0.08 0.08 0.08 0.08 0.07
0.01 0.00 0.00 0.00 0.00 0.00 0.00 0.00 0.00 0.00 0.00 0.00 0.00 0.00 0.00 0.00 0.00 0.00 0.00 0.00 0.00 0.01 0.02 0.04 0.10 0.15 0.19 0.20 0.16 0.11 0.07 0.06 0.06 0.06 0.06 0.05 0.05 0.04 0.04 0.04 0.04 0.04 0.04 0.03
0.02 0.02 0.01 0.00 0.00 0.00 0.00 0.00 0.00 0.00 0.00 0.00 0.00 0.00 0.00 0.00 0.00 0.01 0.02 0.02 0.03 0.07 0.14 0.16 0.14 0.11 0.08 0.06 0.04 0.04 0.04 0.04 0.03 0.03 0.03 0.03 0.03 0.03 0.03 0.03 0.04 0.04 0.04 0.03
0.01 0.01 0.01 0.02 0.01 0.01 0.01 0.02 0.02 0.02 0.02 0.02 0.01 0.01 0.01 0.03 0.04 0.07 0.09 0.09 0.11 0.11 0.15 0.12 0.08 0.06 0.05 0.04 0.02 0.01 0.01 0.01 0.01 0.02 0.02 0.02 0.03 0.03 0.03 0.03 0.03 0.03 0.03 0.03
0.02 0.02 0.02 0.01 0.01 0.02 0.03 0.03 0.03 0.03 0.06 0.06 0.05 0.05 0.05 0.08 0.08 0.09 0.07 0.08 0.10 0.10 0.09 0.07 0.04 0.03 0.03 0.02 0.01 0.00 0.00 0.01 0.01 0.01 0.02 0.02 0.02 0.02 0.03 0.03 0.03 0.03 0.02 0.02
0.03 0.03 0.03 0.02 0.03 0.03 0.04 0.04 0.03 0.04 0.06 0.06 0.04 0.05 0.05 0.07 0.06 0.05 0.03 0.03 0.06 0.04 0.03 0.02 0.02 0.02 0.01 0.01 0.00 0.00 0.01 0.01 0.01 0.01 0.01 0.01 0.01 0.01 0.01 0.00 0.00 0.00 0.00 0.00
0.04 0.03 0.04 0.04 0.02 0.04 0.05 0.04 0.03 0.03 0.04 0.04 0.04 0.04 0.03 0.04 0.04 0.03 0.03 0.03 0.04 0.02 0.02 0.02 0.02 0.01 0.01 0.00 0.00 0.00 0.00 0.00 0.00 0.00 0.00 0.00 0.00 0.00 0.00 0.00 0.00 0.00 0.00 0.00
0.05 0.04 0.04 0.04 0.03 0.04 0.03 0.03 0.03 0.02 0.02 0.02 0.02 0.02 0.02 0.02 0.02 0.01 0.02 0.02 0.01 0.01 0.00 0.00 0.00 0.00 0.00 0.00 0.00 0.00 0.00 0.00 0.00 0.00 0.00 0.00 0.00 0.00 0.00 0.00 0.00 0.00 0.00 0.00
0.06 0.06 0.05 0.05 0.04 0.02 0.02 0.03 0.02 0.02 0.01 0.01 0.01 0.01 0.00 0.00 0.01 0.00 0.00 0.00 0.00 0.00 0.00 0.00 0.00 0.00 0.00 0.00 0.00 0.00 0.00 0.00 0.00 0.00 0.00 0.00 0.00 0.00 0.00 0.00 0.00 0.00 0.00 0.00
0.02 0.01 0.01 0.01 0.01 0.01 0.01 0.01 0.00 0.00 0.00 0.00 0.00 0.00 0.00 0.00 0.01 0.01 0.00 0.00 0.00 0.00 0.00 0.00 0.00 0.00 0.00 0.00 0.00 0.00 0.00 0.00 0.00 0.00 0.00 0.00 0.00 0.00 0.00 0.00 0.00 0.00 0.00 0.00
0.00 0.00 0.00 0.00 0.00 0.00 0.00 0.00 0.00 0.00 0.00 0.00 0.00 0.00 0.00 0.00 0.00 0.00 0.00 0.00 0.00 0.00 0.00 0.00 0.00 0.00 0.00 0.00 0.00 0.00 0.00 0.00 0.00 0.00 0.00 0.00 0.00 0.00 0.00 0.00 0.00 0.00 0.00 0.00
0.00 0.00 0.00 0.00 0.00 0.00 0.00 0.00 0.00 0.00 0.00 0.00 0.00 0.00 0.00 0.00 0.00 0.00 0.00 0.00 0.00 0.00 0.00 0.00 0.00 0.00 0.00 0.00 0.00 0.00 0.00 0.00 0.00 0.00 0.00 0.00 0.00 0.00 0.00 0.00 0.00 0.00 0.00 0.00
MSLP
1005.16 1003.87 1003.41 1002.86 1002.62 1002.68 1003.03 1003.18 1003.17 1003.15 1002.67 1001.95 1001.52 1001.11 1000.86 1000.67 1000.83 1001.06 1001.09 1001.48 1001.75 1002.08 1002.24 1002.50 1003.10 1003.47 1003.81 1004.07 1004.77 1005.52 1006.39 1007.06 1007.16 1007.80 1008.44 1009.05 1009.62 1009.83 1010.32 1010.87 1011.50 1012.31 1012.90 1013.61
1006.14 1004.43 1003.50 1002.88 1002.00 1001.63 1001.89 1002.16 1002.23 1002.06 1001.51 1000.84 1000.31 1000.12 1000.27 1000.14 1000.27 1000.48 1000.45 1000.61 1000.77 1000.97 1001.34 1001.81 1002.07 1002.32 1002.61 1002.92 1003.46 1004.40 1005.12 1005.50 1006.23 1007.06 1007.77 1008.25 1008.85 1009.33 1010.03 1010.66 1011.33 1012.18 1012.75 1013.29
1007.81 1006.22 1004.55 1002.70 1001.07 1001.40 1001.30 1001.17 1001.05 1001.07 1000.82 1000.09 999.84 1000.04 999.96 999.66 999.84 999.98 999.80 999.76 1000.14 1000.43 1000.47 1000.63 1000.89 1001.32 1001.98 1002.18 1002.92 1003.76 1004.36 1005.18 1005.88 1006.54 1007.25 1008.05 1008.65 1009.25 1010.09 1010.60 1011.30 1012.07 1012.67 1013.22
1008.90 1007.81 1005.74 1001.88 1000.66 1000.43 1000.57 1000.40 1000.32 1000.17 999.84 999.39 999.31 998.93 999.04 999.03 999.15 999.05 998.80 999.21 999.32 999.61 999.99 1000.21 1000.72 1001.27 1001.92 1002.56 1003.09 1003.77 1004.52 1005.13 1005.71 1006.38 1007.09 1007.91 1008.58 1009.37 1010.11 1010.81 1011.13 1011.84 1012.70 1013.42
1008.98 1008.36 1006.15 1003.33 1002.00 1001.19 1000.56 999.67 999.46 999.50 999.28 998.89 998.77 998.52 998.74 998.36 998.15 998.17 997.73 997.82 998.34 999.02 999.48 999.95 1000.56 1001.21 1002.00 1002.88 1003.32 1003.93 1004.58 1005.10 1005.69 1006.19 1007.05 1007.83 1008.69 1009.46 1010.03 1010.65 1011.58 1012.31 1013.00 1013.79
1009.18 1008.20 1006.53 1004.32 1002.61 1001.52 1001.09 999.84 999.12 998.50 998.62 998.81 998.48 998.52 998.68 998.07 998.19 997.85 997.71 997.78 998.20 998.70 999.33 1000.45 1001.14 1001.49 1002.26 1003.14 1003.69 1004.19 1004.77 1005.43 1006.02 1006.64 1007.28 1008.10 1008.71 1009.37 1010.16 1010.83 1011.87 1012.76 1013.77 1014.52
1008.89 1008.02 1006.24 1004.57 1003.55 1002.58 1003.04 1000.29 999.62 999.16 998.75 998.52 998.52 997.59 997.28 997.75 997.75 998.05 998.01 998.31 998.27 998.92 999.62 1000.40 1001.21 1001.84 1002.80 1003.39 1003.94 1004.40 1005.10 1005.75 1006.53 1007.14 1007.62 1008.18 1009.00 1009.90 1010.71 1011.64 1012.68 1013.84 1014.93 1015.91
1008.06 1007.72 1006.27 1004.59 1003.98 1004.00 1004.03 1001.82 1000.09 999.61 999.56 999.29 998.67 997.95 997.77 997.74 997.76 998.00 998.51 998.62 998.81 999.46 1000.18 1000.76 1001.28 1001.90 1002.95 1003.81 1004.47 1005.06 1005.77 1006.56 1007.19 1007.62 1008.19 1008.90 1009.59 1010.73 1011.61 1012.52 1013.85 1015.09 1015.95 1016.86
1007.05 1005.68 1004.41 1003.77 1003.45 1002.95 1004.10 1003.27 1000.74 999.80 999.27 999.40 999.01 998.92 998.66 998.31 998.08 998.34 998.30 998.99 999.26 999.70 1000.44 1001.24 1001.70 1002.11 1003.22 1004.25 1004.87 1005.66 1006.44 1007.28 1007.94 1008.59 1009.22 1009.90 1010.81 1011.79 1012.83 1013.76 1014.77 1015.87 1016.65 1017.73
1006.37 1004.60 1003.70 1002.82 1002.12 1001.24 1001.98 1002.16 1000.36 999.81 999.75 999.54 999.39 999.18 998.90 998.78 998.47 998.67 999.52 999.75 1000.10 1000.62 1001.30 1001.94 1002.50 1003.01 1003.71 1004.59 1005.41 1006.11 1007.00 1007.92 1008.63 1009.42 1010.41 1011.20 1011.85 1012.63 1013.47 1014.32 1015.23 1016.12 1017.11 1018.27
1005.55 1004.77 1003.84 1002.82 1001.96 1001.21 1000.89 1000.48 1000.37 1000.10 999.26 999.89 1000.05 999.62 999.27 999.20 999.14 999.29 999.71 1000.55 1000.87 1001.50 1002.37 1003.12 1003.59 1004.15 1004.68 1005.21 1005.62 1006.85 1007.86 1008.89 1009.92 1010.63 1011.42 1012.46 1013.31 1013.95 1014.38 1014.97 1015.05 1015.84 1017.01 1017.84
1006.65 1006.28 1006.12 1003.83 1003.09 1001.94 1000.97 1001.14 1000.91 1000.57 1000.18 1000.16 1000.44 999.91 999.69 1000.11 1000.32 1000.62 1001.50 1001.86 1002.23 1002.72 1003.42 1004.04 1004.47 1005.12 1005.54 1005.92 1006.27 1007.20 1008.73 1009.76 1010.71 1011.60 1012.42 1013.15 1013.96 1015.13 1015.66 1015.77 1016.00 1016.53 1017.23 1017.80
1007.19 1006.11 1006.42 1005.32 1004.09 1002.88 1002.43 1002.13 1002.46 1002.40 1003.20 1001.90 1001.08 1000.64 1000.14 1000.62 1001.67 1002.56 1002.67 1003.21 1003.84 1005.06 1005.32 1005.45 1005.88 1006.60 1007.26 1007.47 1007.65 1008.36 1008.96 1010.22 1011.40 1012.23 1013.07 1013.71 1014.43 1015.09 1016.04 1017.29 1017.48 1017.92 1018.42 1019.02
1007.82 1006.76 1006.70 1005.73 1005.60 1005.59 1004.75 1003.92 1003.76 1004.24 1004.30 1004.42 1003.83 1002.27 1001.83 1002.29 1002.65 1003.91 1004.56 1005.28 1006.16 1006.78 1007.02 1007.28 1007.42 1008.06 1008.29 1008.45 1009.53 1010.56 1011.09 1011.62 1011.75 1012.90 1013.63 1014.38 1015.16 1015.98 1016.71 1017.40 1018.10 1018.90 1019.37 1019.70
1008.37 1008.13 1007.99 1006.81 1006.73 1006.53 1006.31 1005.21 1005.44 1006.12 1006.49 1006.33 1006.45 1005.96 1005.78 1005.90 1006.62 1007.22 1007.72 1007.64 1007.98 1008.60 1009.07 1008.96 1008.92 1010.15 1010.12 1010.32 1009.73 1011.44 1012.46 1013.18 1013.74 1013.99 1015.03 1015.70 1016.23 1016.71 1017.19 1017.73 1018.34 1018.93 1019.53 1020.10
1009.15 1008.48 1008.47 1007.56 1007.98 1008.28 1008.31 1007.62 1007.63 1008.24 1008.38 1008.82 1008.51 1008.84 1009.32 1009.17 1009.20 1009.60 1010.02 1010.03 1009.99 1010.97 1010.98 1011.00 1011.20 1011.71 1011.97 1011.96 1012.16 1012.77 1013.40 1013.99 1015.01 1015.62 1016.09 1016.72 1017.18 1017.49 1017.91 1018.40 1018.92 1019.40 1019.88 1020.48
1009.91 1009.18 1009.28 1009.26 1009.55 1009.99 1010.09 1009.73 1009.62 1010.17 1010.63 1010.94 1011.27 1011.29 1011.41 1011.35 1011.50 1011.90 1012.36 1012.55 1012.69 1013.04 1013.48 1013.01 1013.49 1013.74 1013.64 1013.83 1014.03 1014.56 1015.35 1015.90 1016.33 1016.96 1017.40 1017.92 1018.36 1018.79 1019.15 1019.46 1019.82 1020.31 1020.89 1021.30
1011.30 1011.09 1011.12 1010.95 1010.91 1011.44 1011.51 1011.28 1011.72 1011.46 1011.38 1012.17 1012.76 1013.08 1013.49 1013.48 1013.85 1014.47 1014.77 1014.72 1014.55 1014.53 1014.93 1015.47 1015.43 1015.46 1015.58 1015.80 1016.12 1016.62 1017.03 1017.45 1017.88 1018.52 1018.98 1019.24 1019.61 1019.94 1020.19 1020.48 1020.77 1021.19 1021.64 1021.95
1012.81 1012.71 1012.69 1012.47 1012.76 1012.70 1012.86 1012.95 1012.06 1012.81 1013.57 1013.53 1014.17 1014.78 1015.19 1015.49 1015.84 1016.17 1016.13 1015.99 1016.29 1016.63 1017.49 1017.18 1017.09 1017.15 1017.49 1017.76 1017.88 1018.22 1018.62 1019.07 1019.49 1019.86 1020.16 1020.48 1020.79 1021.09 1021.29 1021.49 1021.80 1022.17 1022.45 1022.73
1014.11 1014.14 1014.30 1014.16 1014.23 1013.84 1013.92 1014.38 1014.25 1014.79 1015.41 1015.32 1015.63 1016.19 1016.93 1017.30 1017.56 1017.84 1017.85 1017.99 1018.62 1018.90 1018.88 1018.70 1018.72 1018.90 1019.13 1019.54 1019.63 1019.86 1020.04 1020.48 1020.90 1021.21 1021.37 1021.67 1022.01 1022.33 1022.52 1022.77 1023.05 1023.30 1023.47 1023.72
1015.56 1015.63 1015.75 1015.77 1015.70 1015.11 1015.29 1015.74 1015.85 1016.50 1017.21 1016.47 1017.30 1018.04 1018.40 1018.59 1018.87 1019.23 1019.10 1019.41 1020.41 1020.38 1020.31 1020.16 1020.23 1020.43 1020.65 1020.97 1021.22 1021.36 1021.61 1021.88 1022.25 1022.57 1022.86 1023.11 1023.37 1023.71 1023.94 1024.11 1024.20 1024.38 1024.65 1024.74
1017.14 1017.14 1017.07 1016.84 1016.78 1016.67 1017.09 1017.37 1017.63 1017.90 1017.97 1018.02 1018.75 1019.44 1019.67 1020.05 1020.47 1020.63 1020.93 1021.29 1021.85 1021.77 1021.72 1021.90 1022.17 1022.29 1022.42 1022.53 1022.66 1022.84 1023.09 1023.34 1023.60 1023.84 1024.15 1024.48 1024.84 1025.17 1025.39 1025.44 1025.55 1025.45 1025.50 1025.57
1018.38 1018.40 1018.38 1018.43 1018.45 1018.70 1019.00 1019.21 1019.29 1019.36 1019.47 1019.71 1020.15 1020.64 1020.94 1021.38 1021.70 1021.90 1022.45 1023.22 1023.21 1023.28 1023.46 1023.82 1023.86 1023.87 1023.98 1024.06 1024.13 1024.29 1024.54 1024.72 1025.01 1025.41 1025.75 1025.96 1026.14 1026.27 1026.38 1026.49 1026.35 1026.26 1026.27 1026.32
1019.50 1019.70 1019.99 1020.06 1020.06 1020.16 1020.29 1020.75 1020.76 1020.97 1021.12 1021.45 1021.76 1022.05 1022.30 1022.67 1023.31 1023.84 1024.22 1024.55 1024.73 1024.83 1025.08 1025.27 1025.19 1025.16 1025.31 1025.43 1025.45 1025.66 1025.94 1026.10 1026.29 1026.55 1026.78 1026.91 1027.03 1027.09 1027.13 1027.22 1027.28 1027.29 1027.29 1027.23
1021.55 1021.68 1021.66 1021.66 1021.62 1021.81 1022.05 1022.29 1022.34 1022.61 1022.86 1023.18 1023.41 1023.55 1023.81 1024.12 1024.25 1025.15 1025.44 1025.77 1025.95 1026.16 1026.50 1026.58 1026.58 1026.62 1026.71 1026.78 1026.78 1026.95 1027.18 1027.30 1027.47 1027.59 1027.78 1027.89 1028.01 1028.06 1028.07 1028.09 1028.08 1028.05 1027.96 1027.83
1022.96 1023.23 1023.48 1023.50 1023.56 1023.62 1023.68 1023.74 1023.99 1024.44 1024.58 1024.91 1025.26 1025.46 1025.58 1025.75 1026.05 1026.44 1026.88 1027.21 1027.50 1027.67 1027.84 1028.00 1028.01 1027.99 1028.06 1027.98 1027.95 1028.15 1028.27 1028.30 1028.34 1028.45 1028.64 1028.70 1028.74 1028.78 1028.78 1028.75 1028.70 1028.52 1028.21 1027.81
1024.61 1024.63 1024.71 1024.90 1025.15 1025.29 1025.37 1025.52 1025.77 1026.32 1026.47 1026.60 1026.92 1027.04 1027.20 1027.51 1027.82 1028.13 1028.42 1028.60 1028.67 1028.78 1028.94 1029.12 1029.34 1029.21 1029.15 1028.98 1028.99 1029.14 1028.94 1028.87 1028.81 1028.92 1029.22 1029.39 1029.21 1029.15 1028.97 1028.72 1028.38 1028.06 1027.73 1027.45
Thickness
5594 5614 5616 5617 5618 5622 5618 5622 5614 5628 5623 5648 5652 5656 5665 5671 5670 5670 5671 5670 5671 5670 5674 5674 5668 5665 5663 5660 5653 5647 5640 5635 5634 5628 5621 5616 5611 5608 5604 5600 5594 5585 5578 5572
5574 5603 5610 5606 5618 5625 5622 5621 5618 5623 5625 5649 5661 5662 5658 5664 5668 5666 5668 5670 5672 5673 5672 5670 5670 5668 5665 5663 5658 5650 5643 5641 5634 5625 5619 5614 5608 5605 5598 5593 5586 5575 5569 5565
5549 5569 5588 5591 5617 5616 5620 5625 5625 5611 5629 5652 5656 5652 5654 5660 5661 5663 5668 5671 5669 5668 5672 5675 5675 5671 5663 5663 5655 5647 5641 5635 5628 5622 5615 5608 5600 5594 5587 5581 5575 5569 5563 5558
5535 5542 5551 5612 5626 5629 5619 5626 5629 5630 5638 5649 5652 5660 5660 5660 5662 5666 5672 5672 5671 5669 5671 5673 5668 5665 5657 5651 5647 5641 5633 5628 5623 5616 5608 5600 5594 5586 5578 5573 5568 5561 5554 5546
5532 5533 5548 5589 5602 5610 5607 5619 5633 5631 5638 5646 5649 5657 5652 5665 5665 5669 5678 5679 5675 5670 5668 5665 5661 5657 5650 5642 5639 5633 5626 5620 5614 5609 5600 5593 5585 5576 5570 5563 5555 5547 5541 5533
5509 5524 5538 5569 5590 5605 5608 5596 5629 5635 5633 5633 5640 5626 5636 5661 5658 5662 5668 5672 5669 5665 5660 5651 5645 5645 5640 5631 5628 5623 5616 5609 5602 5596 5589 5581 5575 5568 5560 5553 5543 5533 5523 5515
5511 5516 5529 5563 5571 5583 5565 5597 5615 5623 5628 5629 5626 5648 5660 5653 5656 5658 5658 5658 5659 5656 5653 5644 5636 5633 5624 5619 5616 5612 5605 5598 5589 5582 5577 5570 5561 5552 5544 5535 5523 5510 5498 5489
5508 5505 5523 5555 5562 5556 5559 5580 5602 5608 5610 5613 5621 5635 5644 5647 5647 5648 5646 5646 5647 5642 5635 5630 5627 5623 5613 5606 5597 5592 5585 5578 5573 5568 5561 5553 5544 5533 5524 5513 5499 5486 5476 5468
5502 5515 5545 5552 5560 5564 5548 5554 5585 5599 5607 5605 5610 5613 5620 5628 5634 5636 5638 5633 5633 5632 5622 5616 5612 5611 5600 5587 5583 5576 5569 5560 5554 5547 5540 5532 5522 5511 5501 5490 5480 5469 5460 5448
5504 5536 5542 5554 5564 5570 5562 5557 5582 5589 5592 5598 5599 5602 5610 5614 5622 5622 5616 5616 5612 5610 5606 5600 5595 5590 5583 5575 5567 5561 5552 5543 5536 5526 5515 5507 5501 5492 5484 5475 5464 5453 5442 5428
5510 5524 5531 5545 5560 5565 5560 5566 5569 5577 5589 5589 5587 5592 5599 5603 5606 5608 5607 5600 5597 5592 5585 5578 5574 5569 5564 5558 5555 5544 5533 5522 5511 5502 5494 5483 5474 5468 5461 5454 5451 5441 5428 5417
5485 5494 5492 5527 5535 5547 5560 5559 5563 5571 5579 5578 5579 5588 5594 5589 5587 5585 5579 5577 5574 5569 5564 5559 5555 5548 5544 5540 5537 5527 5511 5501 5491 5481 5473 5464 5455 5442 5436 5432 5426 5418 5408 5400
5479 5484 5485 5502 5522 5533 5544 5547 5543 5543 5536 5551 5559 5567 5584 5575 5564 5556 5558 5552 5545 5535 5533 5532 5528 5521 5516 5514 5512 5503 5496 5484 5472 5463 5453 5445 5436 5427 5414 5401 5395 5388 5380 5371
5465 5473 5485 5494 5495 5498 5509 5521 5519 5515 5513 5512 5521 5542 5548 5549 5542 5530 5525 5520 5513 5507 5505 5503 5501 5494 5493 5492 5480 5470 5464 5459 5456 5444 5434 5424 5414 5403 5394 5384 5373 5363 5354 5347
5450 5457 5460 5474 5476 5479 5484 5497 5494 5488 5484 5486 5484 5493 5496 5495 5491 5488 5485 5487 5483 5478 5474 5476 5476 5465 5465 5462 5463 5447 5437 5429 5422 5416 5405 5396 5388 5381 5374 5365 5356 5347 5336 5325
5435 5449 5452 5459 5456 5454 5455 5461 5465 5460 5459 5456 5460 5458 5456 5459 5459 5456 5454 5454 5456 5447 5446 5444 5443 5436 5433 5432 5429 5422 5414 5405 5394 5385 5378 5370 5363 5357 5349 5342 5332 5323 5313 5301
5427 5440 5438 5441 5437 5430 5430 5436 5442 5437 5433 5432 5429 5431 5430 5431 5430 5426 5422 5419 5418 5415 5411 5414 5408 5405 5404 5401 5397 5389 5381 5374 5367 5358 5352 5343 5336 5326 5319 5312 5303 5293 5281 5272
5405 5407 5409 5413 5416 5412 5412 5415 5414 5418 5417 5411 5407 5404 5402 5403 5400 5395 5392 5391 5392 5391 5386 5380 5379 5377 5373 5370 5365 5358 5351 5344 5336 5327 5320 5313 5306 5298 5290 5282 5274 5264 5253 5244
5384 5385 5387 5389 5388 5391 5390 5391 5400 5395 5388 5388 5384 5380 5377 5374 5371 5368 5368 5369 5365 5361 5351 5352 5351 5347 5342 5337 5334 5327 5321 5313 5306 5298 5291 5284 5277 5268 5261 5254 5245 5235 5226 5217
5364 5365 5366 5368 5368 5373 5372 5368 5371 5367 5363 5364 5361 5356 5349 5346 5344 5340 5339 5337 5331 5327 5325 5325 5322 5318 5314 5307 5303 5298 5293 5284 5277 5269 5263 5255 5247 5239 5231 5224 5215 5206 5198 5189
5344 5344 5345 5346 5348 5353 5351 5348 5347 5342 5337 5344 5337 5329 5325 5323 5320 5316 5315 5311 5301 5299 5298 5297 5294 5290 5285 5279 5273 5268 5261 5254 5247 5239 5231 5225 5217 5209 5201 5193 5186 5176 5166 5157
5327 5327 5327 5329 5329 5330 5328 5326 5324 5323 5322 5322 5315 5307 5303 5299 5293 5290 5286 5282 5275 5273 5272 5268 5262 5259 5255 5250 5245 5239 5232 5225 5217 5210 5203 5196 5186 5178 5169 5162 5154 5145 5135 5125
5310 5309 5309 5308 5307 5305 5302 5300 5299 5299 5297 5294 5289 5283 5279 5275 5270 5267 5260 5252 5250 5247 5243 5237 5233 5230 5225 5220 5215 5209 5202 5196 5188 5180 5171 5163 5154 5146 5138 5129 5121 5113 5105 5097
5293 5290 5287 5286 5285 5283 5281 5277 5276 5274 5271 5268 5263 5259 5255 5249 5242 5236 5231 5226 5222 5219 5214 5209 5206 5202 5197 5192 5187 5181 5173 5166 5158 5149 5142 5133 5123 5116 5107 5099 5091 5083 5075 5067
5269 5266 5265 5265 5265 5264 5260 5256 5255 5252 5248 5243 5240 5236 5231 5226 5223 5214 5209 5203 5199 5193 5187 5183 5179 5173 5168 5162 5157 5150 5141 5134 5126 5119 5111 5103 5094 5087 5079 5073 5065 5057 5050 5042
5253 5248 5244 5243 5241 5240 5238 5237 5232 5226 5223 5217 5211 5207 5203 5200 5195 5189 5182 5176 5170 5165 5160 5153 5149 5144 5138 5133 5127 5120 5114 5108 5101 5094 5086 5079 5072 5065 5057 5050 5043 5037 5031 5024
5232 5230 5228 5223 5218 5215 5212 5209 5205 5197 5192 5188 5184 5180 5175 5169 5164 5159 5153 5148 5144 5139 5133 5128 5123 5118 5113 5108 5102 5097 5091 5085 5079 5073 5066 5059 5052 5045 5039 5034 5029 5023 5017 5009